This is the latest recevied weather packets stored in our database for station/object N4MGC. If no packets are shown the sender has not sent any weather packets the latest 10 day(s).
| Time | Temp. | Humidity | Pressure | Rain* | Wind** | Luminosity | Snow |
|---|---|---|---|---|---|---|---|
| 1777526622 | 18.33° C | 99% | 1012.3 hPa | 4.83 mm | - | 0 W/m² | - |
| 1777526317 | 18.33° C | 99% | 1012.1 hPa | 6.1 mm | - | 0 W/m² | - |
| 1777526013 | 18.33° C | 99% | 1012.3 hPa | 10.67 mm | - | 0 W/m² | - |
| 1777525710 | 18.33° C | 99% | 1012.2 hPa | 31.75 mm | - | 0 W/m² | - |
| 1777525407 | 18.33° C | 99% | 1012.2 hPa | 29.46 mm | - | 0 W/m² | - |
| 1777525103 | 18.33° C | 99% | 1012.7 hPa | 3.56 mm | - | 0 W/m² | - |
| 1777524800 | 18.33° C | 99% | 1012.3 hPa | 0 mm | - | 0 W/m² | - |
| 1777524498 | 18.33° C | 99% | 1012.3 hPa | 0 mm | - | 0 W/m² | - |
| 1777524195 | 18.33° C | 99% | 1012.1 hPa | 0 mm | - | 0 W/m² | - |
| 1777523890 | 18.33° C | 99% | 1012.2 hPa | 0 mm | - | 0 W/m² | - |
| 1777523588 | 18.33° C | 99% | 1012 hPa | 0 mm | - | 0 W/m² | - |
| 1777523284 | 18.89° C | 99% | 1011.9 hPa | 0 mm | - | 0 W/m² | - |
| 1777522979 | 18.89° C | 99% | 1012.1 hPa | 0 mm | - | 0 W/m² | - |
| 1777522677 | 18.33° C | 99% | 1012.2 hPa | 0 mm | - | 0 W/m² | - |
| 1777522373 | 18.89° C | 99% | 1011.9 hPa | 0 mm | - | 0 W/m² | - |
| 1777522070 | 18.89° C | 99% | 1012.1 hPa | 0 mm | - | 0 W/m² | - |
| 1777521767 | 18.89° C | 99% | 1012 hPa | 0 mm | - | 0 W/m² | - |
| 1777521463 | 18.89° C | 99% | 1012.3 hPa | 0 mm | - | 0 W/m² | - |
| 1777521160 | 19.44° C | 99% | 1012.7 hPa | 0 mm | - | 0 W/m² | - |
| 1777520858 | 19.44° C | 99% | 1012.8 hPa | 0 mm | - | 0 W/m² | - |
| 1777520555 | 20° C | 99% | 1012.7 hPa | 0 mm | - | 0 W/m² | - |
| 1777520252 | 20° C | 99% | 1012.4 hPa | 1.27 mm | - | 0 W/m² | - |
| 1777519950 | 20° C | 99% | 1012.4 hPa | 7.11 mm | - | 0 W/m² | - |
| 1777519646 | 20° C | 98% | 1012.7 hPa | 18.54 mm | - | 0 W/m² | - |
| 1777519342 | 20.56° C | 97% | 1012.7 hPa | 12.7 mm | - | 0 W/m² | - |
* Rain latest hour (hover to see other rain measurements)
** Current wind speed in m/s (hover to see current wind gust speed)